User: anonymous   Login
Location: Unspecified
(0.0000°N, 0.0000°E)
Time: 09:46:28
(UTC+00:00)
Language:

SEEDS - Orbit

View from above orbital plane
View from above orbital plane
View from above satellite
View from above satellite

Ground track
Ground track

The orbit data is extracted from the following two-line orbital elements,

1 32791U 08021J   22279.83816648  .00005892  00000-0  56786-3 0  9998
2 32791  97.6240 252.6351 0012707 170.8336 189.3118 14.93226243783893
Epoch (UTC): 06 October 2022 20:06:57
Eccentricity: 0.0012707
inclination: 97.6240°
perigee height: 579 km
apogee height: 597 km
right ascension of ascending node: 252.6351°
argument of perigee: 170.8336°
revolutions per day: 14.93226243
mean anomaly at epoch: 189.3118°
orbit number at epoch: 78389

The dashed part of the orbit path shows where the satellite is in the earth's shadow,  

DLR